CAPE
1 1 0 0 0 2 10 20 31 31 25 9 nan nan nan nan nan nan nan nan nan nan nan nan nan nan nan nan nan nan nan nan nan nan nan nan nan nan nan nan nan nan nan nan nan nan nan nan nan nan nan nan nan nan 24 57 57 88 134 176 176 213 260 280 280 308 304 277 264 264 237 193 132 132 79 57 47 47 49 51 51 55 50 50 50 82
nan nan nan nan nan nan 2 4 16 16 31 36 24 24 2 nan nan nan nan nan nan nan nan nan nan nan nan nan nan nan nan nan nan nan nan nan nan nan nan nan nan nan nan nan nan nan nan nan nan nan nan nan nan nan nan 17 17 51 91 127 127 186 242 293 293 324 321 322 290 290 227 160 100 100 68 58 61 61 58 65 65 68 57 67 67 107
nan nan nan nan nan nan 0 0 3 3 13 25 38 38 31 4 nan nan nan nan nan nan nan nan nan nan nan nan nan nan nan nan nan nan nan nan nan nan nan nan nan nan nan nan nan nan nan nan nan nan nan nan nan nan nan nan nan 15 38 64 64 104 153 205 205 249 276 268 215 215 162 104 64 64 65 74 83 83 75 74 74 72 72 83 83 137
nan nan nan nan nan nan nan 0 2 2 6 8 15 15 31 27 4 4 nan nan nan nan nan nan nan nan nan nan nan nan nan nan nan nan nan nan nan nan nan nan nan nan nan nan nan nan nan nan nan nan nan nan nan nan nan nan nan nan 5 17 17 33 67 99 99 132 153 142 109 109 75 61 52 52 64 82 68 68 76 74 74 73 80 91 91 161
2 1 1 nan nan nan nan nan 1 1 3 3 4 4 9 33 23 23 1 nan nan nan nan nan nan nan nan nan nan nan nan nan nan nan nan nan nan nan nan nan nan nan nan nan nan nan nan nan nan nan nan nan nan nan nan nan nan nan nan nan nan 4 14 28 28 45 53 57 43 43 35 38 50 50 56 46 27 27 35 60 60 82 84 85 85 144
4 3 3 2 2 1 nan nan 1 1 2 2 3 3 9 31 50 50 24 nan nan nan nan nan nan nan nan nan nan nan nan nan nan nan nan nan nan nan nan nan nan nan nan nan nan nan nan nan nan nan nan nan nan nan nan nan nan nan nan nan nan nan 0 3 3 7 11 15 17 17 19 23 28 28 10 0 5 5 15 80 80 103 81 62 62 134
9 9 11 9 9 8 3 2 5 5 3 3 2 2 7 19 44 44 60 32 32 nan nan nan nan nan nan nan nan nan nan nan nan nan nan nan nan nan nan nan nan nan nan nan nan nan nan nan nan nan nan nan nan nan nan nan nan nan nan nan nan nan nan nan nan nan 0 2 4 4 7 7 6 6 nan nan nan nan 9 63 63 105 65 45 45 121
22 19 18 16 16 10 8 7 12 12 20 12 9 9 4 1 0 0 2 13 13 41 47 58 58 45 40 13 nan nan nan nan nan nan nan nan nan nan nan nan nan nan nan nan nan nan nan nan nan nan nan nan nan nan nan nan nan nan nan nan nan nan nan nan nan nan nan nan nan nan nan nan nan nan nan nan nan nan nan nan nan 66 80 50 50 69
26 23 21 21 21 17 10 8 15 15 22 14 14 14 7 2 0 0 0 2 2 4 8 8 8 15 25 47 45 45 2 nan nan nan nan nan nan nan nan nan nan nan nan nan nan nan nan nan nan nan nan nan nan nan nan nan nan nan nan nan nan nan nan nan nan nan nan nan nan nan nan nan nan nan nan nan nan nan nan nan nan 16 69 61 61 68
18 24 22 21 21 26 18 14 35 35 13 11 14 14 11 7 4 4 3 2 2 2 2 3 3 2 1 5 32 32 42 6 nan nan nan nan nan nan nan nan nan nan nan nan nan nan nan nan nan nan nan nan nan nan nan nan nan nan nan nan nan nan nan nan nan nan nan nan nan nan nan nan nan nan nan nan nan nan nan nan nan nan 9 22 22 49
14 18 23 23 23 25 28 34 48 48 9 5 7 7 10 14 12 12 8 5 5 4 3 4 4 3 2 3 16 16 53 63 15 15 nan nan nan nan nan nan nan nan nan nan nan nan nan nan nan nan nan nan nan nan nan nan nan nan nan nan nan nan nan nan nan nan nan nan nan nan nan nan nan nan nan nan nan nan nan nan nan nan nan 1 1 12
13 15 19 22 22 27 32 38 28 28 7 5 6 6 8 14 18 18 16 12 12 8 7 3 3 2 2 11 38 38 36 56 84 84 53 13 nan nan nan nan nan nan nan nan nan nan nan nan nan nan nan nan nan nan nan nan nan nan nan nan nan nan nan nan nan nan nan nan nan nan nan nan nan nan nan nan nan nan nan nan nan nan nan nan nan 2
10 14 15 20 20 31 35 20 8 8 7 10 9 9 8 13 19 19 19 19 19 16 11 5 5 1 0 19 41 41 7 8 11 11 36 49 69 69 28 7 7 nan nan nan nan nan nan nan nan nan nan nan nan nan nan nan nan nan nan nan nan nan nan nan nan nan nan nan nan nan nan nan nan nan nan nan nan nan nan nan nan nan nan nan nan nan
8 10 12 14 14 25 25 10 6 6 9 13 13 13 14 15 18 18 16 17 17 19 14 6 6 1 nan 26 4 4 1 1 1 1 0 4 13 13 40 42 42 28 nan nan nan nan nan nan nan nan nan nan nan nan nan nan nan nan nan nan nan nan nan nan nan nan nan nan nan nan nan nan nan nan nan nan nan nan nan nan nan nan nan nan nan nan
8 12 12 12 12 18 14 6 5 5 8 12 11 11 10 10 14 14 15 16 16 19 13 6 6 1 nan 19 8 8 5 5 3 3 2 1 0 0 3 18 18 33 25 0 0 nan nan nan nan nan nan nan nan nan nan nan nan nan nan nan nan nan nan nan nan nan nan nan nan nan nan nan nan nan nan nan nan nan nan nan nan nan nan nan nan nan
11 12 11 9 9 12 9 5 5 5 7 10 11 11 8 7 11 11 13 17 17 17 14 6 6 1 nan 3 15 15 9 4 3 3 3 1 0 0 3 12 12 17 28 23 23 0 nan nan nan nan nan nan nan nan nan nan nan nan nan nan nan nan nan nan nan nan nan nan nan nan nan nan nan nan nan nan nan nan nan nan nan nan nan nan nan nan
9 11 11 9 9 8 5 3 6 6 8 8 9 9 9 7 11 11 14 16 16 15 14 12 12 4 0 0 5 5 8 5 3 3 3 2 0 0 2 11 11 13 16 26 26 16 nan nan nan nan nan nan nan nan nan nan nan nan nan nan nan nan nan nan nan nan nan nan nan nan nan nan nan nan nan nan nan nan nan nan nan nan nan nan nan nan
9 9 12 8 8 6 5 5 8 8 11 10 9 9 8 9 10 10 11 13 13 12 13 14 14 10 4 2 3 3 6 6 5 5 4 3 1 1 1 9 9 14 11 21 21 29 14 nan nan nan nan nan nan nan nan nan nan nan nan nan nan nan nan nan nan nan nan nan nan nan nan nan nan nan nan nan nan nan nan nan nan nan nan nan nan nan
8 10 10 9 9 7 8 10 14 14 17 15 12 12 7 7 7 7 8 10 10 10 11 11 11 13 12 7 7 7 4 8 7 7 5 5 3 3 2 8 8 14 15 26 26 45 40 13 13 nan nan nan nan nan nan nan nan nan nan nan nan nan nan nan nan nan nan nan nan nan nan nan nan nan nan nan nan nan nan nan nan nan nan nan nan nan
6 7 7 8 8 11 14 19 25 25 27 29 18 18 7 4 4 4 5 8 8 7 9 8 8 9 13 12 5 5 0 6 7 7 5 8 7 7 nan 2 2 10 10 12 12 25 37 46 46 19 nan nan nan nan nan nan nan nan nan nan nan nan nan nan nan nan nan nan nan nan nan nan nan nan nan nan nan nan nan nan nan nan nan nan nan nan
0 0 2 13 13 16 20 21 27 27 38 38 19 19 9 5 4 4 2 3 3 3 5 5 5 8 10 5 1 1 nan 4 5 5 9 14 16 16 nan nan nan 0 0 nan nan nan nan 0 0 7 25 nan nan nan nan nan nan nan nan nan nan nan nan nan nan nan nan nan nan nan nan nan nan nan nan nan nan nan nan nan nan nan nan nan nan nan
1 3 7 20 20 24 26 20 28 28 36 36 16 16 14 9 5 5 1 0 0 0 2 4 4 7 6 3 nan nan nan 3 6 6 20 16 12 12 nan nan nan nan nan nan nan nan nan nan nan nan 0 3 1 1 nan nan nan nan nan nan nan nan nan nan nan nan nan nan nan nan nan nan nan nan nan nan nan nan nan nan nan nan nan nan nan nan
15 27 37 23 23 8 10 14 16 16 28 26 21 21 16 10 5 5 3 1 1 1 4 7 7 8 6 5 0 0 1 7 25 25 22 8 10 10 nan nan nan 1 0 nan nan nan nan nan nan nan nan 0 1 1 nan nan nan nan nan nan nan nan nan nan nan nan nan nan nan nan nan nan nan nan nan nan nan nan nan nan nan nan nan nan nan nan
42 31 1 nan nan nan 5 12 13 13 19 19 19 19 11 5 3 3 5 9 9 14 15 16 16 11 9 6 3 3 10 39 43 43 12 3 6 6 0 4 4 4 2 nan nan nan nan nan nan nan nan nan 0 0 nan nan nan nan nan nan nan nan nan nan nan nan nan nan nan nan nan nan nan nan nan nan nan nan nan nan nan nan nan nan nan nan
14 nan nan nan nan 1 11 12 18 18 16 8 3 3 2 13 39 39 41 34 34 27 19 13 13 10 11 18 13 13 12 20 16 16 6 2 1 1 2 11 11 13 7 0 0 nan nan nan nan nan nan nan 0 0 0 nan nan nan nan nan nan nan nan nan nan nan nan nan nan nan nan nan nan nan nan nan nan nan nan nan nan nan nan nan nan nan
8 0 nan 4 4 30 34 39 40 40 33 16 15 15 24 33 25 25 16 21 21 20 15 8 8 8 8 10 13 13 12 11 20 20 7 1 nan nan 2 9 9 20 23 8 8 nan nan nan nan nan nan nan 1 1 1 0 0 nan nan nan nan nan nan nan nan nan nan nan nan nan nan nan nan nan nan nan nan nan nan nan nan nan nan nan nan nan
24 18 21 27 27 28 31 33 36 36 42 38 24 24 21 11 4 4 7 13 13 17 15 9 9 8 8 9 13 13 16 14 13 13 7 1 nan nan 3 0 0 13 24 7 7 0 nan nan nan nan nan nan 1 1 2 1 1 0 0 nan nan nan nan nan nan nan nan nan nan nan nan nan nan nan nan nan nan nan nan nan nan nan nan nan nan nan
21 15 14 17 17 20 23 26 28 28 32 39 52 52 31 3 3 3 9 16 16 17 13 10 10 9 8 10 15 15 15 10 16 16 19 14 6 6 13 8 8 14 14 8 8 1 nan nan nan nan nan nan nan nan 1 1 1 0 0 0 0 nan nan nan nan nan nan nan nan nan nan nan nan nan nan nan nan nan nan nan nan nan nan nan nan nan
17 14 16 18 18 19 22 25 27 27 27 32 41 41 24 3 7 7 13 17 17 13 11 11 11 11 10 13 12 12 7 12 20 20 15 11 13 13 18 10 10 10 12 10 10 2 nan nan nan nan nan nan nan nan nan 0 0 1 0 nan nan nan nan nan nan nan nan nan nan nan nan nan nan nan nan nan nan nan nan nan nan nan nan nan nan nan
5 16 17 22 22 26 22 8 20 20 32 30 34 34 23 4 6 6 9 11 11 9 7 10 10 11 9 8 5 5 6 28 10 10 2 3 3 3 4 3 3 6 8 7 7 7 0 nan nan nan nan nan nan nan nan nan nan 0 0 0 0 nan nan nan nan nan nan nan nan nan nan nan nan nan nan nan nan nan nan nan nan nan nan nan nan nan
1 2 0 0 0 nan nan nan 2 2 24 36 35 35 16 1 4 4 4 2 2 3 5 8 8 9 10 7 2 2 7 35 5 5 nan 0 1 1 1 1 1 1 4 6 6 5 4 nan nan nan nan nan nan nan nan nan nan nan nan nan nan nan nan nan nan nan nan nan nan nan nan nan nan nan nan nan nan nan nan nan nan nan nan nan nan nan
6 8 7 4 4 nan nan nan nan nan 0 2 0 0 8 12 9 9 3 1 1 1 3 8 8 11 13 14 9 9 6 5 14 14 13 4 2 2 1 nan nan nan nan 3 3 5 6 6 6 5 2 nan nan nan nan nan nan nan nan nan nan nan nan nan nan nan nan nan nan nan nan nan nan nan nan nan nan nan nan nan nan nan nan nan nan nan
8 7 7 5 5 1 0 nan 0 0 7 8 1 1 0 3 12 12 8 3 3 2 2 5 5 11 10 10 7 7 4 3 18 18 21 9 4 4 2 0 0 nan nan 1 1 6 7 7 7 5 4 nan nan nan nan nan nan nan nan nan nan nan nan nan nan nan nan nan nan nan nan nan nan nan nan nan nan nan nan nan nan nan nan nan nan nan
5 7 7 6 6 1 1 5 2 2 4 7 8 8 6 3 1 1 4 4 4 4 5 8 8 11 11 11 6 6 2 2 15 15 21 11 9 9 3 1 1 1 0 1 1 2 4 6 6 8 8 3 nan nan nan nan nan nan nan nan nan nan nan nan nan nan nan nan nan nan nan nan nan nan nan nan nan nan nan nan nan nan nan nan nan nan
3 5 4 3 3 3 3 3 3 3 4 3 5 5 4 2 0 0 0 3 3 7 10 11 11 14 14 12 9 9 5 1 8 8 15 10 9 9 5 3 3 2 1 0 0 1 2 4 4 10 9 7 3 3 nan nan nan nan nan nan nan nan nan nan nan nan nan nan nan nan nan nan nan nan nan nan nan nan nan nan nan nan nan nan nan nan
2 2 4 3 3 4 4 4 3 3 4 2 2 2 3 1 2 2 0 1 1 6 15 18 18 19 16 12 10 10 7 1 3 3 9 3 5 5 6 6 6 3 2 2 2 3 3 4 4 7 9 10 15 15 nan nan nan nan nan nan nan nan nan nan nan nan nan nan nan nan nan nan nan nan nan nan nan nan nan nan nan nan nan nan nan nan
2 2 3 3 3 3 4 3 3 3 3 3 2 2 2 1 5 5 3 0 0 4 6 13 13 15 19 12 8 8 8 2 nan nan 0 1 2 2 3 4 4 8 5 2 2 3 4 5 5 7 7 12 16 16 9 nan nan nan nan nan nan nan nan nan nan nan nan nan nan nan nan nan nan nan nan nan nan nan nan nan nan nan nan nan nan nan
2 3 3 2 2 2 2 2 2 2 2 2 3 3 1 0 3 3 6 0 0 2 2 2 2 2 8 16 10 10 5 2 nan nan nan nan 0 0 4 6 6 11 11 6 6 4 3 5 5 5 8 12 16 16 19 8 8 0 nan nan nan nan nan nan nan nan nan nan nan nan nan nan nan nan nan nan nan nan nan nan nan nan nan nan nan nan
1 1 2 3 3 3 2 1 2 2 2 3 4 4 2 2 4 4 3 2 2 0 nan 1 1 0 1 2 8 8 8 2 0 0 nan nan nan nan 5 12 12 13 15 14 14 12 9 6 6 6 10 14 13 13 7 5 5 7 nan nan nan nan nan nan nan nan nan nan nan nan nan nan nan nan nan nan nan nan nan nan nan nan nan nan nan nan
2 1 3 3 3 2 1 2 2 2 2 3 5 5 2 2 1 1 0 1 1 1 nan nan nan 1 1 3 4 4 3 0 nan nan nan nan nan nan nan 5 5 8 9 12 12 14 13 10 10 12 20 22 20 20 14 6 6 8 20 12 12 0 nan nan nan nan nan nan nan nan nan nan nan nan nan nan nan nan nan nan nan nan nan nan nan nan
2 2 1 1 1 2 2 2 2 2 2 1 0 0 1 1 1 1 1 1 1 1 1 1 1 0 nan nan nan nan nan nan nan nan nan nan nan nan nan nan nan 2 3 5 5 6 10 11 11 11 19 27 31 31 27 28 28 31 33 35 35 7 nan nan nan nan nan nan nan nan nan nan nan nan nan nan nan nan nan nan nan nan nan nan nan nan
7 3 1 0 0 0 0 0 1 1 1 nan 1 1 0 1 2 2 2 2 2 1 1 2 2 1 nan nan nan nan nan nan nan nan nan nan nan nan nan nan nan nan nan 1 1 2 4 7 7 12 15 29 35 35 31 29 29 36 40 38 38 19 1 nan nan nan nan nan nan nan nan nan nan nan nan nan nan nan nan nan nan nan nan nan nan nan
2 1 0 nan nan nan 0 1 1 1 1 0 0 0 0 0 1 1 3 1 1 3 3 2 2 2 1 0 nan nan nan nan nan nan nan nan nan nan nan nan nan nan nan nan nan 0 3 6 6 10 12 20 20 20 21 20 20 25 38 39 39 26 34 nan nan nan nan nan nan nan nan nan nan nan nan nan nan nan nan nan nan nan nan nan nan nan
1 0 nan nan nan nan nan nan nan nan nan nan 0 0 0 nan 2 2 3 1 1 3 2 2 2 1 0 0 nan nan nan nan nan nan nan nan nan nan nan nan nan nan nan nan nan 1 3 7 7 10 13 11 9 9 9 10 10 17 32 29 29 26 47 nan nan nan nan nan nan nan nan nan nan nan nan nan nan nan nan nan nan nan nan nan nan nan
0 nan nan nan nan nan nan nan nan nan nan nan nan nan nan nan 2 2 2 1 1 1 1 1 1 0 0 nan 0 0 nan nan nan nan nan nan nan nan nan nan nan nan nan 0 0 5 10 12 12 10 9 9 8 8 7 8 8 14 33 36 36 28 29 0 0 nan nan nan nan nan nan nan nan nan nan nan nan nan nan nan nan nan nan nan nan nan
0 nan nan nan nan nan 0 nan nan nan nan nan nan nan nan nan 0 0 1 0 0 0 0 1 1 0 0 0 0 0 nan nan nan nan nan nan nan nan nan nan nan 1 2 0 0 1 8 9 9 10 8 8 7 7 6 10 10 18 27 35 35 25 26 nan nan nan nan nan nan nan nan nan nan nan nan nan nan nan nan nan nan nan nan nan nan nan
nan nan nan nan nan nan nan nan nan nan nan nan nan nan nan nan nan nan nan 0 0 nan 0 1 1 0 1 1 0 0 0 0 nan nan nan nan nan nan nan nan nan 0 nan nan nan nan nan nan nan nan 4 9 8 8 5 5 5 17 23 29 29 32 32 7 7 nan nan nan nan nan nan nan nan nan nan nan nan nan nan nan nan nan nan nan nan nan
1 nan nan nan nan nan nan nan nan nan nan nan nan nan nan nan nan nan nan nan nan nan 1 0 0 0 0 0 0 0 0 1 1 1 0 nan nan nan nan nan nan nan nan nan nan nan nan nan nan nan nan 4 10 10 6 4 4 11 16 18 18 22 29 27 27 0 nan nan nan nan nan nan 2 2 nan nan nan nan nan nan nan nan nan nan nan nan
0 nan nan nan nan nan nan nan nan nan nan nan nan nan nan 0 9 9 nan nan nan nan nan 0 0 0 0 nan 0 0 3 3 1 1 0 nan nan nan nan nan nan nan nan nan nan nan nan nan nan nan nan nan 6 6 17 10 10 15 17 14 14 16 24 30 30 9 0 nan nan nan nan 2 6 6 nan nan nan nan nan nan nan nan nan nan nan nan
0 0 0 nan nan nan nan nan nan nan nan nan nan nan nan nan nan nan nan nan nan nan nan nan nan 0 nan 0 0 0 1 0 0 0 0 0 0 0 nan nan nan nan nan nan nan nan nan nan nan nan nan nan 2 2 21 24 24 17 11 6 6 14 26 26 26 21 11 2 nan nan nan nan nan nan nan 1 nan nan nan nan nan nan nan nan nan nan
2 1 0 nan nan nan nan nan nan nan nan nan nan nan nan nan nan nan nan nan nan nan nan nan nan 0 nan 0 0 0 1 0 0 0 0 0 2 2 3 nan nan nan nan nan nan nan nan nan nan nan nan nan 1 1 2 13 13 9 2 1 1 8 18 25 25 24 18 29 nan nan nan nan 1 1 5 7 0 0 nan nan nan nan nan nan nan nan
CIN
-0 -1 -4 -4 -4 -1 -0 -0 -0 -0 -0 -2 nan nan nan nan nan nan nan nan nan nan nan nan nan nan nan nan nan nan nan nan nan nan nan nan nan nan nan nan nan nan nan nan nan nan nan nan nan nan nan nan nan nan -203 -189 -189 -183 -155 -127 -127 -102 -78 -72 -72 -62 -62 -69 -67 -67 -63 -70 -104 -104 -147 -165 -173 -173 -166 -157 -157 -147 -144 -127 -127 -65
nan nan nan nan nan nan -1 -2 -0 -0 -0 -0 -1 -1 -5 nan nan nan nan nan nan nan nan nan nan nan nan nan nan nan nan nan nan nan nan nan nan nan nan nan nan nan nan nan nan nan nan nan nan nan nan nan nan nan nan -218 -218 -204 -177 -150 -150 -109 -83 -67 -67 -60 -62 -56 -59 -59 -70 -97 -138 -138 -161 -163 -153 -153 -150 -135 -135 -122 -123 -96 -96 -41
nan nan nan nan nan nan -2 -4 -2 -2 -0 -0 -0 -0 -0 -2 nan nan nan nan nan nan nan nan nan nan nan nan nan nan nan nan nan nan nan nan nan nan nan nan nan nan nan nan nan nan nan nan nan nan nan nan nan nan nan nan nan -253 -235 -207 -207 -168 -132 -106 -106 -93 -86 -86 -102 -102 -119 -153 -186 -186 -167 -141 -125 -125 -123 -113 -113 -102 -86 -61 -61 -21
nan nan nan nan nan nan nan -4 -3 -3 -2 -1 -0 -0 -0 -0 -3 -3 nan nan nan nan nan nan nan nan nan nan nan nan nan nan nan nan nan nan nan nan nan nan nan nan nan nan nan nan nan nan nan nan nan nan nan nan nan nan nan nan -308 -286 -286 -258 -214 -184 -184 -162 -149 -156 -178 -178 -201 -204 -202 -202 -170 -134 -124 -124 -105 -96 -96 -84 -60 -36 -36 -13
-4 -2 -2 nan nan nan nan nan -5 -5 -4 -3 -2 -2 -0 -0 -1 -1 -11 nan nan nan nan nan nan nan nan nan nan nan nan nan nan nan nan nan nan nan nan nan nan nan nan nan nan nan nan nan nan nan nan nan nan nan nan nan nan nan nan nan nan -335 -305 -275 -275 -246 -234 -226 -242 -242 -242 -225 -193 -193 -175 -149 -130 -130 -93 -72 -72 -66 -55 -27 -27 -1
-3 -2 -2 -3 -3 -3 nan nan -5 -5 -7 -5 -4 -4 -1 -0 -0 -0 -2 nan nan nan nan nan nan nan nan nan nan nan nan nan nan nan nan nan nan nan nan nan nan nan nan nan nan nan nan nan nan nan nan nan nan nan nan nan nan nan nan nan nan nan -378 -343 -343 -321 -298 -283 -271 -271 -255 -231 -209 -209 -204 -177 -123 -123 -74 -51 -51 -47 -52 -28 -28 -1
-2 -3 -3 -3 -3 -2 -3 -3 -3 -3 -3 -3 -4 -4 -2 -0 -0 -0 -0 -0 -0 nan nan nan nan nan nan nan nan nan nan nan nan nan nan nan nan nan nan nan nan nan nan nan nan nan nan nan nan nan nan nan nan nan nan nan nan nan nan nan nan nan nan nan nan nan -346 -319 -298 -298 -269 -249 -236 -236 nan nan nan nan -86 -49 -49 -37 -47 -25 -25 -0
-0 -1 -3 -2 -2 -3 -3 -4 -2 -2 -0 -0 -0 -0 -1 -3 -3 -3 -2 -0 -0 -0 -0 -0 -0 -0 -0 -1 nan nan nan nan nan nan nan nan nan nan nan nan nan nan nan nan nan nan nan nan nan nan nan nan nan nan nan nan nan nan nan nan nan nan nan nan nan nan nan nan nan nan nan nan nan nan nan nan nan nan nan nan nan -44 -24 -0 -0 -0
-0 -0 -1 -2 -2 -1 -1 -3 -2 -2 -0 -0 -0 -0 -0 -1 -3 -3 -4 -3 -3 -3 -1 -0 -0 -0 -0 -0 -0 -0 -7 nan nan nan nan nan nan nan nan nan nan nan nan nan nan nan nan nan nan nan nan nan nan nan nan nan nan nan nan nan nan nan nan nan nan nan nan nan nan nan nan nan nan nan nan nan nan nan nan nan nan -84 -37 -1 -1 -0
-1 -1 -1 -2 -2 -2 -1 -1 -0 -0 -1 -1 -1 -1 -0 -0 -1 -1 -2 -3 -3 -4 -5 -2 -2 -2 -2 -1 -0 -0 -0 -6 nan nan nan nan nan nan nan nan nan nan nan nan nan nan nan nan nan nan nan nan nan nan nan nan nan nan nan nan nan nan nan nan nan nan nan nan nan nan nan nan nan nan nan nan nan nan nan nan nan nan -82 -33 -33 -0
-0 -1 -1 -1 -1 -3 -2 -1 -0 -0 -2 -2 -2 -2 -2 -0 -0 -0 -0 -1 -1 -3 -4 -3 -3 -3 -2 -2 -1 -1 -0 -0 -2 -2 nan nan nan nan nan nan nan nan nan nan nan nan nan nan nan nan nan nan nan nan nan nan nan nan nan nan nan nan nan nan nan nan nan nan nan nan nan nan nan nan nan nan nan nan nan nan nan nan nan -84 -84 -33
-0 -1 -1 -1 -1 -1 -1 -1 -2 -2 -3 -2 -1 -1 -1 -1 -0 -0 -0 -0 -0 -1 -2 -3 -3 -4 -3 -1 -0 -0 -0 -0 -0 -0 -0 -0 nan nan nan nan nan nan nan nan nan nan nan nan nan nan nan nan nan nan nan nan nan nan nan nan nan nan nan nan nan nan nan nan nan nan nan nan nan nan nan nan nan nan nan nan nan nan nan nan nan -74
-1 -1 -1 -1 -1 -1 -0 -1 -2 -2 -2 -1 -0 -0 -0 -1 -1 -1 -0 -0 -0 -1 -1 -2 -2 -4 -5 -0 -0 -0 -0 -0 -0 -0 -0 -0 -0 -0 -0 -0 -0 nan nan nan nan nan nan nan nan nan nan nan nan nan nan nan nan nan nan nan nan nan nan nan nan nan nan nan nan nan nan nan nan nan nan nan nan nan nan nan nan nan nan nan nan nan
-1 -1 -1 -1 -1 -1 -1 -1 -1 -1 -1 -0 -0 -0 -0 -1 -0 -0 -0 -0 -0 -1 -2 -2 -2 -4 nan -0 -0 -0 -1 -2 -3 -3 -4 -2 -0 -0 -0 -0 -0 -0 nan nan nan nan nan nan nan nan nan nan nan nan nan nan nan nan nan nan nan nan nan nan nan nan nan nan nan nan nan nan nan nan nan nan nan nan nan nan nan nan nan nan nan nan
-1 -1 -1 -1 -1 -1 -1 -1 -1 -1 -1 -1 -1 -1 -2 -1 -1 -1 -0 -0 -0 -1 -2 -2 -2 -4 nan -2 -2 -2 -1 -1 -2 -2 -2 -4 -4 -4 -1 -0 -0 -0 -0 -4 -4 nan nan nan nan nan nan nan nan nan nan nan nan nan nan nan nan nan nan nan nan nan nan nan nan nan nan nan nan nan nan nan nan nan nan nan nan nan nan nan nan nan
-1 -1 -0 -1 -1 -1 -2 -2 -1 -1 -1 -2 -2 -2 -1 -1 -1 -1 -0 -0 -0 -1 -1 -1 -1 -3 nan -7 -2 -2 -1 -1 -2 -2 -2 -3 -6 -6 -3 -0 -0 -0 -0 -0 -0 -8 nan nan nan nan nan nan nan nan nan nan nan nan nan nan nan nan nan nan nan nan nan nan nan nan nan nan nan nan nan nan nan nan nan nan nan nan nan nan nan nan
-1 -1 -0 -0 -0 -1 -3 -4 -2 -2 -2 -2 -2 -2 -1 -1 -1 -1 -0 -1 -1 -1 -1 -0 -0 -1 -4 -8 -6 -6 -1 -1 -2 -2 -1 -2 -6 -6 -5 -0 -0 -0 -0 -0 -0 -1 nan nan nan nan nan nan nan nan nan nan nan nan nan nan nan nan nan nan nan nan nan nan nan nan nan nan nan nan nan nan nan nan nan nan nan nan nan nan nan nan
-1 -1 -0 -1 -1 -1 -3 -3 -3 -3 -2 -2 -3 -3 -3 -2 -1 -1 -1 -1 -1 -1 -0 -0 -0 -0 -1 -3 -6 -6 -2 -1 -1 -1 -1 -2 -5 -5 -6 -1 -1 -0 -0 -0 -0 -0 -3 nan nan nan nan nan nan nan nan nan nan nan nan nan nan nan nan nan nan nan nan nan nan nan nan nan nan nan nan nan nan nan nan nan nan nan nan nan nan nan
-1 -1 -0 -1 -1 -2 -2 -3 -2 -2 -1 -2 -2 -2 -3 -3 -3 -3 -2 -1 -1 -1 -0 -0 -0 -1 -1 -2 -5 -5 -4 -1 -0 -0 -0 -1 -4 -4 -6 -2 -2 -0 -0 -0 -0 -0 -0 -3 -3 nan nan nan nan nan nan nan nan nan nan nan nan nan nan nan nan nan nan nan nan nan nan nan nan nan nan nan nan nan nan nan nan nan nan nan nan nan
-1 -1 -1 -1 -1 -1 -2 -2 -1 -1 -1 -1 -1 -1 -3 -4 -3 -3 -3 -2 -2 -2 -2 -1 -1 -1 -1 -2 -5 -5 -5 -1 -0 -0 -0 -0 -3 -3 nan -7 -7 -0 -0 -1 -1 -0 -0 -0 -0 -1 nan nan nan nan nan nan nan nan nan nan nan nan nan nan nan nan nan nan nan nan nan nan nan nan nan nan nan nan nan nan nan nan nan nan nan nan
-3 -4 -2 -1 -1 -0 -1 -2 -1 -1 -0 -1 -1 -1 -3 -4 -3 -3 -4 -4 -4 -3 -3 -2 -2 -2 -3 -4 -7 -7 nan -0 -0 -0 -0 -1 -3 -3 nan nan nan -0 -1 nan nan nan nan -2 -2 -0 -0 nan nan nan nan nan nan nan nan nan nan nan nan nan nan nan nan nan nan nan nan nan nan nan nan nan nan nan nan nan nan nan nan nan nan nan
-10 -5 -3 -1 -1 -0 -0 -2 -1 -1 -1 -1 -2 -2 -2 -2 -2 -2 -4 -5 -5 -6 -2 -2 -2 -3 -5 -4 nan nan nan -0 -0 -0 -0 -0 -3 -3 nan nan nan nan nan nan nan nan nan nan nan nan -1 -0 -0 -0 nan nan nan nan nan nan nan nan nan nan nan nan nan nan nan nan nan nan nan nan nan nan nan nan nan nan nan nan nan nan nan nan
-0 -0 -0 -2 -2 -4 -4 -5 -7 -7 -3 -1 -1 -1 -1 -1 -3 -3 -3 -5 -5 -4 -2 -2 -2 -4 -4 -3 -7 -7 -2 -0 -0 -0 -0 -0 -1 -1 nan nan nan -3 -3 nan nan nan nan nan nan nan nan -0 -0 -0 nan nan nan nan nan nan nan nan nan nan nan nan nan nan nan nan nan nan nan nan nan nan nan nan nan nan nan nan nan nan nan nan
-1 -1 -11 nan nan nan -13 -8 -9 -9 -7 -5 -4 -4 -6 -8 -7 -7 -4 -1 -1 -1 -1 -2 -2 -3 -3 -3 -3 -3 -1 -0 -0 -0 -0 -0 -1 -1 -7 -3 -3 -1 -2 nan nan nan nan nan nan nan nan nan -0 -0 nan nan nan nan nan nan nan nan nan nan nan nan nan nan nan nan nan nan nan nan nan nan nan nan nan nan nan nan nan nan nan nan
-16 nan nan nan nan -22 -8 -7 -6 -6 -9 -17 -26 -26 -27 -6 -1 -1 -1 -1 -1 -1 -1 -1 -1 -1 -3 -3 -4 -4 -3 -1 -0 -0 -0 -0 -2 -2 -2 -0 -0 -0 -1 -8 -8 nan nan nan nan nan nan nan -0 -0 -0 nan nan nan nan nan nan nan nan nan nan nan nan nan nan nan nan nan nan nan nan nan nan nan nan nan nan nan nan nan nan nan
-15 -21 nan -8 -8 -0 -0 -0 -0 -0 -0 -7 -9 -9 -4 -1 -2 -2 -3 -2 -2 -2 -1 -2 -2 -2 -5 -5 -4 -4 -8 -4 -0 -0 -0 -0 nan nan -1 -0 -0 -0 -0 -3 -3 nan nan nan nan nan nan nan -0 -0 -0 -0 -0 nan nan nan nan nan nan nan nan nan nan nan nan nan nan nan nan nan nan nan nan nan nan nan nan nan nan nan nan nan
-0 -0 -0 -0 -0 -0 -0 -0 -0 -0 -0 -0 -1 -1 -6 -5 -3 -3 -2 -1 -1 -1 -0 -1 -1 -2 -5 -6 -5 -5 -7 -5 -2 -2 -0 -0 nan nan -1 -2 -2 -0 -0 -1 -1 -4 nan nan nan nan nan nan -0 -0 -0 -0 -0 -0 -0 nan nan nan nan nan nan nan nan nan nan nan nan nan nan nan nan nan nan nan nan nan nan nan nan nan nan nan
-0 -0 -0 -0 -0 -0 -0 -0 -0 -0 -0 -0 -0 -0 -0 -6 -2 -2 -0 -0 -0 -0 -0 -0 -0 -1 -2 -3 -4 -4 -6 -4 -2 -2 -0 -0 -0 -0 -0 -0 -0 -0 -0 -0 -0 -3 nan nan nan nan nan nan nan nan -0 -0 -0 -0 -0 -0 -0 nan nan nan nan nan nan nan nan nan nan nan nan nan nan nan nan nan nan nan nan nan nan nan nan nan
-0 -0 -0 -0 -0 -0 -0 -0 -0 -0 -0 -0 -0 -0 -0 -6 -1 -1 -0 -0 -0 -0 -0 -0 -0 -0 -0 -1 -3 -3 -5 -2 -0 -0 -0 -0 -0 -0 -0 -0 -0 -0 -0 -0 -0 -2 nan nan nan nan nan nan nan nan nan -0 -0 -0 -0 nan nan nan nan nan nan nan nan nan nan nan nan nan nan nan nan nan nan nan nan nan nan nan nan nan nan nan
-5 -0 -0 -0 -0 -0 -0 -8 -0 -0 -0 -0 -0 -0 -0 -7 -2 -2 -1 -1 -1 -0 -0 -0 -0 -0 -1 -1 -3 -3 -6 -1 -0 -0 -1 -0 -1 -1 -1 -0 -0 -0 -0 -0 -0 -1 -6 nan nan nan nan nan nan nan nan nan nan -0 -0 -0 -0 nan nan nan nan nan nan nan nan nan nan nan nan nan nan nan nan nan nan nan nan nan nan nan nan nan
-11 -15 -30 -26 -26 nan nan nan -17 -17 -0 -0 -0 -0 -1 -18 -9 -9 -5 -4 -4 -1 -0 -0 -0 -0 -1 -1 -1 -1 -3 -1 -3 -3 nan -1 -1 -1 -2 -1 -1 -1 -0 -0 -0 -0 -1 nan nan nan nan nan nan nan nan nan nan nan nan nan nan nan nan nan nan nan nan nan nan nan nan nan nan nan nan nan nan nan nan nan nan nan nan nan nan nan
-4 -3 -4 -13 -13 nan nan nan nan nan -27 -16 -25 -25 -6 -2 -4 -4 -9 -9 -9 -6 -1 -0 -0 -0 -1 -0 -0 -0 -1 -7 -5 -5 -4 -1 -3 -3 -4 nan nan nan nan -0 -0 -0 -0 -0 -0 -2 -4 nan nan nan nan nan nan nan nan nan nan nan nan nan nan nan nan nan nan nan nan nan nan nan nan nan nan nan nan nan nan nan nan nan nan nan
-0 -1 -4 -9 -9 -20 -27 nan -23 -23 -8 -5 -20 -20 -22 -12 -2 -2 -4 -5 -5 -4 -5 -1 -1 -0 -1 -1 -2 -2 -4 -9 -1 -1 -1 -1 -1 -1 -3 -3 -3 nan nan -1 -1 -0 -0 -0 -0 -1 -2 nan nan nan nan nan nan nan nan nan nan nan nan nan nan nan nan nan nan nan nan nan nan nan nan nan nan nan nan nan nan nan nan nan nan nan
-2 -2 -3 -3 -3 -18 -15 -6 -14 -14 -4 -1 -0 -0 -5 -10 -12 -12 -6 -5 -5 -5 -4 -1 -1 -0 -0 -0 -1 -1 -5 -11 -1 -1 -1 -1 -0 -0 -2 -1 -1 -1 -2 -1 -1 -1 -1 -0 -0 -0 -1 -4 nan nan nan nan nan nan nan nan nan nan nan nan nan nan nan nan nan nan nan nan nan nan nan nan nan nan nan nan nan nan nan nan nan nan
-2 -1 -2 -4 -4 -6 -4 -5 -4 -4 -0 -1 -0 -0 -3 -9 -18 -18 -16 -9 -9 -5 -3 -3 -3 -1 -0 -0 -0 -0 -1 -12 -4 -4 -0 -0 -0 -0 -1 -2 -2 -2 -1 -1 -1 -1 -1 -1 -1 -0 -0 -1 -4 -4 nan nan nan nan nan nan nan nan nan nan nan nan nan nan nan nan nan nan nan nan nan nan nan nan nan nan nan nan nan nan nan nan
-2 -4 -1 -3 -3 -0 -1 -0 -1 -1 -0 -1 -1 -1 -3 -9 -9 -9 -19 -17 -17 -7 -1 -2 -2 -2 -2 -2 -1 -1 -1 -10 -5 -5 -0 -1 -0 -0 -0 -1 -1 -1 -0 -0 -0 -0 -0 -0 -0 -1 -0 -0 -0 -0 nan nan nan nan nan nan nan nan nan nan nan nan nan nan nan nan nan nan nan nan nan nan nan nan nan nan nan nan nan nan nan nan
-2 -2 -2 -3 -3 -2 -0 -1 -0 -0 -1 -0 -1 -1 -4 -11 -5 -5 -12 -23 -23 -11 -5 -1 -1 -1 -0 -3 -3 -3 -3 -8 nan nan -4 -3 -1 -1 -0 -1 -1 -1 -0 -0 -0 -0 -0 -0 -0 -0 -1 -0 -1 -1 -5 nan nan nan nan nan nan nan nan nan nan nan nan nan nan nan nan nan nan nan nan nan nan nan nan nan nan nan nan nan nan nan
-1 -1 -1 -3 -3 -3 -2 -2 -0 -0 -0 -0 -0 -0 -9 -14 -7 -7 -4 -17 -17 -9 -8 -7 -7 -9 -3 -0 -5 -5 -8 -11 nan nan nan nan -1 -1 -0 -0 -0 -1 -1 -0 -0 -0 -0 -0 -0 -0 -1 -2 -2 -2 -1 -4 -4 -15 nan nan nan nan nan nan nan nan nan nan nan nan nan nan nan nan nan nan nan nan nan nan nan nan nan nan nan nan
-3 -4 -2 -1 -1 -2 -2 -1 -0 -0 -1 -2 -1 -1 -7 -9 -6 -6 -7 -7 -7 -13 nan -13 -13 -12 -15 -13 -5 -5 -6 -14 -20 -20 nan nan nan nan -1 -0 -0 -0 -1 -1 -1 -0 -0 -0 -0 -0 -0 -1 -2 -2 -4 -4 -4 -4 nan nan nan nan nan nan nan nan nan nan nan nan nan nan nan nan nan nan nan nan nan nan nan nan nan nan nan nan
-2 -4 -1 -0 -0 -1 -3 -1 -2 -2 -4 -4 -2 -2 -6 -6 -9 -9 -7 -8 -8 -11 nan nan nan -12 -9 -5 -5 -5 -12 -24 nan nan nan nan nan nan nan -1 -1 -0 -1 -1 -1 -0 -0 -0 -0 -0 -0 -0 -1 -1 -2 -4 -4 -3 -2 -4 -4 -21 nan nan nan nan nan nan nan nan nan nan nan nan nan nan nan nan nan nan nan nan nan nan nan nan
-1 -4 -2 -1 -1 -0 -1 -3 -8 -8 -7 -7 -9 -9 -9 -5 -5 -5 -4 -6 -6 -7 -10 -10 -10 -10 nan nan nan nan nan nan nan nan nan nan nan nan nan nan nan -1 -1 -1 -1 -1 -0 -0 -0 -0 -0 -0 -1 -1 -1 -1 -1 -1 -1 -0 -0 -11 nan nan nan nan nan nan nan nan nan nan nan nan nan nan nan nan nan nan nan nan nan nan nan nan
-0 -0 -2 -4 -4 -5 -9 -13 -8 -8 -8 nan -8 -8 -7 -4 -4 -4 -4 -6 -6 -7 -7 -7 -7 -6 nan nan nan nan nan nan nan nan nan nan nan nan nan nan nan nan nan -1 -1 -1 -1 -0 -0 -0 -0 -0 -0 -0 -1 -1 -1 -1 -1 -1 -1 -7 -22 nan nan nan nan nan nan nan nan nan nan nan nan nan nan nan nan nan nan nan nan nan nan nan
-1 -2 -6 nan nan nan -9 -8 -7 -7 -7 -9 -9 -9 -9 -9 -5 -5 -3 -5 -5 -4 -3 -5 -5 -4 -4 -8 nan nan nan nan nan nan nan nan nan nan nan nan nan nan nan nan nan -1 -1 -1 -1 -0 -1 -0 -0 -0 -0 -0 -0 -1 -1 -2 -2 -5 -2 nan nan nan nan nan nan nan nan nan nan nan nan nan nan nan nan nan nan nan nan nan nan nan
-4 -7 nan nan nan nan nan nan nan nan nan nan -8 -8 -12 nan -5 -5 -3 -6 -6 -4 -5 -6 -6 -6 -5 -6 nan nan nan nan nan nan nan nan nan nan nan nan nan nan nan nan nan -0 -1 -1 -1 -1 -1 -1 -0 -0 -0 -0 -0 -0 -1 -3 -3 -3 -0 nan nan nan nan nan nan nan nan nan nan nan nan nan nan nan nan nan nan nan nan nan nan nan
-13 nan nan nan nan nan nan nan nan nan nan nan nan nan nan nan -5 -5 -5 -6 -6 -5 -7 -6 -6 -5 -4 nan -5 -5 nan nan nan nan nan nan nan nan nan nan nan nan nan -11 -11 -1 -0 -0 -0 -1 -2 -1 -0 -0 -0 -1 -1 -1 -1 -2 -2 -3 -4 -23 -23 nan nan nan nan nan nan nan nan nan nan nan nan nan nan nan nan nan nan nan nan nan
-12 nan nan nan nan nan -7 nan nan nan nan nan nan nan nan nan -12 -12 -5 -7 -7 -8 -9 -7 -7 -4 -3 -4 -6 -6 nan nan nan nan nan nan nan nan nan nan nan -14 -11 -12 -12 -10 -2 -1 -1 -0 -1 -1 -1 -1 -1 -1 -1 -0 -0 -1 -1 -2 -5 nan nan nan nan nan nan nan nan nan nan nan nan nan nan nan nan nan nan nan nan nan nan nan
nan nan nan nan nan nan nan nan nan nan nan nan nan nan nan nan nan nan nan -9 -9 nan -8 -7 -7 -6 -4 -5 -6 -6 -5 -6 nan nan nan nan nan nan nan nan nan -17 nan nan nan nan nan nan nan nan -0 -0 -0 -0 -2 -3 -3 -1 -1 -0 -0 -0 -1 -9 -9 nan nan nan nan nan nan nan nan nan nan nan nan nan nan nan nan nan nan nan nan nan
-8 nan nan nan nan nan nan nan nan nan nan nan nan nan nan nan nan nan nan nan nan nan -3 -7 -7 -7 -6 -7 -7 -7 -5 -5 -6 -6 -9 nan nan nan nan nan nan nan nan nan nan nan nan nan nan nan nan -0 -0 -0 -1 -3 -3 -3 -2 -1 -1 -1 -0 -2 -2 -21 nan nan nan nan nan nan -28 -28 nan nan nan nan nan nan nan nan nan nan nan nan
-12 nan nan nan nan nan nan nan nan nan nan nan nan nan nan -7 -0 -0 nan nan nan nan nan -6 -6 -6 -6 nan -6 -6 -2 -3 -6 -6 -9 nan nan nan nan nan nan nan nan nan nan nan nan nan nan nan nan nan -0 -0 -0 -3 -3 -5 -5 -3 -3 -2 -1 -1 -1 -9 -25 nan nan nan nan -16 -18 -18 nan nan nan nan nan nan nan nan nan nan nan nan
-13 -15 -13 nan nan nan nan nan nan nan nan nan nan nan nan nan nan nan nan nan nan nan nan nan nan -6 nan -7 -7 -7 -5 -7 -8 -8 -9 -11 -11 -11 nan nan nan nan nan nan nan nan nan nan nan nan nan nan -7 -7 -0 -3 -3 -7 -9 -9 -9 -4 -1 -2 -2 -5 -11 -20 nan nan nan nan nan nan nan -28 nan nan nan nan nan nan nan nan nan nan
-6 -11 -15 nan nan nan nan nan nan nan nan nan nan nan nan nan nan nan nan nan nan nan nan nan nan -6 nan -5 -5 -5 -3 -7 -6 -6 -7 -10 -8 -8 -6 nan nan nan nan nan nan nan nan nan nan nan nan nan -23 -23 -20 -10 -10 -13 -15 -17 -17 -12 -5 -3 -3 -6 -9 -5 nan nan nan nan -19 -19 -16 -17 -26 -26 nan nan nan nan nan nan nan nan
Wind_Speed
6 7 8 10 11 10 9 11 12 11 9 9 9 9 8 8 8 9 11 11 11 11 11 12 12 12 13 16 18 19 21 22 23 23 24 24 25 25 26 26 26 27 27 27 27 26 26 26 26 26 26 27 27 27 26 26 26 26 26 26 26 27 27 27 27 27 26 26 26 27 27 27 26 26 26 25 25 25 25 25 25 24 24 24 24 25
6 6 7 9 10 9 8 12 13 12 12 11 10 9 9 9 9 8 8 9 11 11 12 12 12 13 14 14 16 19 20 22 23 23 24 24 24 24 25 25 26 26 27 27 27 27 27 26 26 26 26 26 27 27 26 26 26 26 26 26 26 26 27 27 27 27 27 27 27 27 27 27 26 26 26 26 26 26 25 25 25 25 25 25 25 26
6 6 6 7 8 8 8 10 11 11 12 13 13 13 13 12 10 8 8 8 8 9 10 11 11 12 14 14 16 18 20 22 23 24 25 24 24 24 25 25 25 26 27 27 27 28 28 27 27 27 27 27 27 27 26 26 25 25 25 25 25 25 26 26 26 27 27 27 27 27 26 26 26 26 27 27 27 26 26 25 25 25 25 25 26 27
6 6 7 6 6 6 7 9 10 10 10 11 13 15 16 13 10 8 8 8 8 8 9 10 11 11 12 12 13 16 19 21 23 24 26 26 26 26 26 26 26 27 27 27 28 28 28 28 28 27 27 27 27 27 26 26 25 25 24 24 24 24 24 24 25 25 25 25 25 25 25 25 26 26 27 27 26 25 24 24 25 25 26 26 27 28
6 6 7 7 6 6 6 7 8 9 8 9 11 12 14 12 10 9 8 7 7 7 8 8 9 10 10 10 11 13 17 19 21 23 25 25 26 27 27 27 27 27 28 28 28 28 28 28 28 27 27 27 27 27 26 26 25 24 24 24 24 24 23 23 23 23 23 23 23 24 24 24 25 25 26 26 25 23 22 23 24 25 26 27 27 28
5 5 6 5 5 5 6 7 7 7 7 8 9 9 10 11 11 11 10 8 7 7 6 6 7 8 9 9 10 12 14 17 19 20 22 23 24 25 26 26 27 27 28 28 28 28 28 28 28 27 27 27 26 26 26 25 25 24 24 23 23 23 23 23 22 22 22 22 22 23 23 23 23 24 25 24 24 23 22 23 24 26 27 26 27 27
5 4 4 4 4 4 5 5 6 6 6 6 7 8 9 10 11 12 13 11 9 7 6 6 6 6 7 9 10 11 12 14 15 17 19 20 22 23 23 24 25 26 27 28 28 28 28 28 28 27 27 26 26 26 25 25 25 24 24 23 23 23 23 22 22 22 22 22 22 22 22 22 22 23 23 23 23 23 23 23 25 26 26 26 26 27
6 5 4 4 4 4 4 4 4 5 5 6 7 8 8 8 9 11 13 13 12 11 9 9 8 8 8 8 9 9 10 11 11 12 14 16 18 19 21 22 24 25 27 27 28 28 28 28 28 27 27 26 26 26 25 25 24 24 24 24 23 23 23 22 22 22 22 22 22 22 22 22 22 22 22 22 23 23 23 24 25 26 26 26 26 26
7 7 5 5 5 5 5 4 4 4 6 6 6 7 8 8 9 9 9 10 10 10 10 10 11 11 11 11 10 10 9 9 10 10 10 11 12 14 17 19 22 24 26 27 28 28 28 28 28 27 27 26 26 26 25 25 25 24 24 24 23 23 23 23 22 22 22 22 22 22 22 22 22 21 21 21 22 23 24 24 25 26 26 26 26 25
7 7 7 5 5 5 5 5 4 4 7 6 5 5 6 8 9 9 9 8 7 7 7 8 9 11 12 12 12 11 10 10 10 11 12 11 11 12 14 15 17 20 24 26 27 28 28 28 28 27 27 26 26 25 25 25 25 24 24 24 24 23 23 23 22 22 22 22 22 22 22 22 21 21 20 20 21 22 24 25 25 26 26 26 26 26
7 7 7 6 5 4 4 4 4 5 7 6 5 4 4 6 7 9 11 10 9 8 6 6 7 8 10 11 11 11 11 9 8 9 11 11 12 12 13 14 15 17 21 23 25 26 27 27 27 27 26 26 26 25 25 25 25 25 25 24 24 23 23 23 22 22 22 22 22 22 21 21 21 20 20 20 20 22 23 24 25 25 25 25 26 26
6 6 6 5 5 5 4 4 4 5 6 6 6 6 5 6 6 7 9 10 10 10 9 7 6 6 8 9 9 9 10 11 10 9 9 8 8 8 9 11 12 14 16 18 21 23 25 26 26 26 25 25 25 25 25 25 25 25 25 25 24 24 23 23 22 22 22 22 22 21 21 21 21 20 20 20 20 21 22 23 24 24 24 25 25 26
5 5 5 5 5 5 5 6 6 6 6 6 7 7 7 7 6 6 7 8 9 9 9 8 7 6 6 7 6 6 8 10 10 11 11 11 10 9 7 6 7 8 10 12 13 16 20 22 23 24 24 24 24 25 25 24 25 25 25 25 25 24 24 23 23 22 22 22 22 21 21 21 21 21 20 20 20 20 21 22 23 23 23 24 24 25
5 5 5 5 5 5 5 6 7 7 6 6 6 6 7 7 7 7 7 7 8 8 8 8 8 6 5 5 5 5 7 8 8 9 9 9 10 10 10 9 8 6 6 7 9 10 13 15 16 18 21 22 23 23 24 24 24 25 25 25 25 24 24 24 23 23 22 22 22 22 21 21 21 21 21 21 21 21 21 21 22 22 23 23 24 25
5 5 6 6 5 5 5 6 6 6 5 5 5 5 6 6 7 7 7 8 8 8 8 8 8 6 4 4 4 5 7 7 8 9 10 9 8 8 9 9 9 8 6 6 7 8 9 10 11 12 15 19 21 21 22 22 24 25 24 24 24 24 24 24 24 24 23 23 23 23 22 22 22 21 21 21 21 21 21 21 22 22 22 23 24 24
5 5 6 6 6 5 4 5 5 5 5 5 5 5 6 7 7 7 7 8 8 8 7 8 9 8 5 3 3 5 7 8 9 10 11 11 9 8 8 8 9 9 8 7 6 6 6 7 8 10 11 17 20 22 24 23 24 25 25 24 24 24 24 24 24 24 24 24 24 24 24 23 23 23 22 22 22 22 21 21 22 22 22 22 23 24
5 5 5 6 6 6 5 4 5 5 5 5 4 4 5 6 6 6 6 7 7 6 6 7 8 8 7 5 3 4 7 8 9 9 10 11 10 8 7 8 8 9 8 8 7 6 5 6 7 8 9 14 18 22 24 25 25 26 25 25 24 24 24 24 25 25 26 26 26 26 26 26 25 25 24 23 23 22 22 22 22 22 22 22 23 23
5 5 5 6 6 6 5 5 4 4 5 5 5 5 5 5 5 5 5 6 6 6 6 6 6 6 6 7 5 5 7 8 9 9 10 10 9 8 7 7 7 8 8 8 7 7 6 6 7 8 9 14 18 21 24 25 25 25 25 25 25 25 25 26 26 27 27 27 28 28 27 27 27 26 26 25 24 23 23 22 22 22 22 23 23 23
5 5 6 6 6 5 5 4 5 5 5 6 6 6 6 6 5 5 5 5 5 6 6 6 6 6 6 7 7 7 8 8 8 9 9 9 9 8 6 6 7 7 7 7 8 8 7 7 7 9 12 15 18 20 22 23 24 24 25 25 26 26 27 27 28 28 28 29 28 28 28 28 27 27 27 26 25 24 23 23 23 22 23 23 24 24
5 5 5 5 5 5 5 5 5 6 7 7 7 7 7 6 6 5 5 4 4 5 5 6 7 7 6 7 7 7 7 8 8 8 8 9 8 7 5 5 6 7 7 7 8 8 9 9 9 10 12 14 17 20 22 23 24 24 25 26 27 28 28 28 29 29 29 28 28 28 27 27 27 26 26 26 25 25 24 23 23 23 24 24 25 25
6 5 4 4 5 5 5 5 6 8 9 8 8 7 6 6 6 6 5 5 5 5 5 5 6 6 5 7 7 7 7 7 7 7 6 7 7 6 3 4 5 7 8 8 7 7 7 8 9 10 12 14 16 18 21 23 24 25 26 27 27 28 28 28 28 28 28 28 27 27 27 27 26 26 26 26 25 25 25 24 24 25 25 26 26 27
5 5 4 5 5 6 6 7 8 9 9 9 7 6 6 6 6 7 6 6 6 6 6 6 6 6 6 7 7 7 6 6 6 6 5 7 7 6 3 3 5 7 9 8 8 7 7 7 8 9 11 14 16 17 18 20 22 25 26 26 27 27 27 27 27 27 27 27 27 27 27 27 26 26 26 26 25 25 25 25 26 26 27 28 28 28
5 5 6 6 5 6 6 7 7 7 7 7 6 6 5 6 7 7 7 6 6 7 7 6 6 6 6 6 6 6 5 6 6 6 5 7 8 7 4 4 6 7 9 8 7 7 7 7 8 9 11 13 15 15 15 16 18 21 23 25 26 26 26 26 27 26 26 26 26 26 26 26 26 26 26 25 25 25 26 26 27 27 28 29 29 29
5 6 6 5 5 5 6 6 6 6 5 5 5 5 5 5 6 6 6 6 6 6 6 6 7 6 5 6 5 4 4 4 5 5 4 5 6 6 4 5 7 9 9 7 6 6 7 8 8 8 9 11 12 12 12 11 12 15 18 21 23 24 25 25 26 26 26 26 26 26 26 26 26 25 25 25 25 26 26 27 27 28 29 29 29 29
6 6 6 6 7 8 9 9 9 8 8 6 5 5 5 6 7 7 7 6 6 6 6 7 7 6 5 4 4 3 2 3 4 4 4 4 5 5 5 5 7 8 9 7 6 6 7 8 9 8 7 7 8 10 10 10 9 9 12 15 18 20 22 23 24 25 25 25 25 25 25 25 25 25 25 26 26 26 26 27 28 28 29 29 29 28
10 10 11 12 14 15 16 15 15 15 14 11 8 7 6 6 7 7 6 6 6 7 7 7 7 6 5 4 3 3 2 3 3 4 4 4 4 5 4 4 5 7 8 8 7 7 7 8 9 8 6 6 7 9 10 10 9 8 7 8 11 14 18 20 22 23 24 24 25 25 25 26 26 26 26 27 27 27 27 28 28 28 28 28 27 27
16 17 18 18 18 18 17 17 17 18 18 16 14 11 8 6 6 6 6 6 7 7 7 7 7 6 5 4 4 3 3 3 3 3 4 4 5 4 3 3 4 6 9 8 8 7 8 8 8 7 6 5 6 7 10 10 10 9 8 6 5 7 10 13 16 19 21 22 23 24 25 25 26 26 26 27 27 27 27 28 28 28 27 26 24 23
16 16 16 17 16 17 17 17 17 17 17 18 18 16 11 7 6 6 6 6 7 7 7 7 7 7 6 5 5 5 4 4 3 3 4 5 5 4 4 4 5 7 8 8 8 8 7 6 5 5 4 5 5 6 8 9 10 9 9 8 6 5 4 6 8 11 14 17 19 20 22 22 23 23 24 24 24 25 25 26 26 26 25 21 17 15
14 14 14 15 15 15 15 15 15 15 16 17 17 15 11 6 5 5 6 6 6 7 7 7 7 7 6 6 6 5 5 3 3 4 6 5 5 5 5 5 5 6 7 7 7 7 5 4 3 3 3 4 5 5 6 7 8 8 8 8 7 6 5 4 4 4 6 9 11 13 15 17 18 19 19 20 20 21 21 22 22 21 18 15 13 11
9 10 10 10 11 11 11 10 10 12 14 15 15 13 9 6 4 5 6 6 6 6 7 7 7 7 6 7 6 5 4 2 3 5 7 6 5 5 5 6 5 5 5 6 6 6 5 4 3 2 3 4 4 4 4 5 5 5 6 6 7 6 6 5 4 4 3 4 6 8 10 12 13 14 15 16 16 17 18 18 17 14 10 10 9 9
8 7 6 6 6 6 6 6 7 8 10 12 12 10 8 5 5 5 5 5 5 6 6 6 7 6 6 6 5 5 3 3 4 6 6 5 5 5 5 5 5 5 4 4 5 5 6 5 4 3 3 5 5 4 3 3 3 3 4 4 5 5 6 6 5 5 4 5 5 6 7 9 10 12 13 14 15 16 16 17 15 12 8 8 8 9
8 7 6 6 5 4 4 5 5 5 6 7 7 7 6 6 6 5 5 5 5 5 6 6 6 6 6 6 5 5 4 4 5 7 6 5 4 4 4 5 5 4 3 3 3 4 5 5 5 5 5 6 6 5 3 3 3 3 3 3 3 4 5 6 5 5 5 6 6 7 8 9 10 11 12 13 14 15 16 17 15 12 9 8 8 9
8 7 6 6 6 5 4 5 5 5 5 6 5 5 6 6 6 7 6 6 6 5 6 6 6 6 6 7 6 6 5 5 6 8 8 5 4 4 3 4 5 5 4 4 4 4 4 5 5 6 7 6 5 4 3 3 2 2 2 2 3 3 5 5 5 5 5 5 6 7 8 9 10 11 12 13 14 15 16 17 17 14 11 9 8 9
8 8 7 7 6 5 5 6 6 6 6 6 7 7 6 6 7 7 7 6 6 6 6 6 6 7 7 7 7 6 6 5 7 9 9 6 5 4 4 4 5 5 5 4 4 4 4 5 6 6 7 6 5 4 3 3 2 2 2 2 3 3 4 4 4 4 4 4 4 5 6 7 9 11 12 13 14 15 16 18 18 17 15 11 9 8
7 8 7 7 7 6 7 7 7 7 7 7 7 8 7 7 7 7 7 6 6 6 6 6 6 6 7 7 7 7 7 6 7 9 10 7 6 4 5 4 4 5 5 5 5 4 4 5 6 7 7 7 6 4 3 2 2 2 2 2 3 4 4 4 3 3 3 3 3 3 4 4 6 7 9 11 13 15 17 18 19 20 19 16 12 10
7 7 7 7 7 7 8 8 8 8 8 7 7 7 8 7 7 7 7 6 7 7 7 7 6 6 6 7 7 8 8 8 9 10 10 8 6 5 4 4 4 5 6 6 5 5 5 6 7 7 7 7 6 5 3 2 2 2 2 3 4 4 5 5 4 4 3 3 3 3 3 3 4 5 6 9 12 14 17 18 20 21 21 19 17 13
7 7 7 7 7 7 8 8 8 8 8 8 8 8 8 8 8 8 7 7 7 7 8 8 8 8 8 8 8 8 9 8 9 10 11 9 7 6 5 5 5 6 6 6 6 6 6 6 6 7 6 6 5 5 4 3 2 2 2 3 4 4 5 5 5 4 4 3 3 3 3 3 3 4 5 7 10 12 15 18 19 21 22 21 20 17
7 7 7 7 7 7 7 7 8 8 8 8 8 8 8 8 8 9 8 8 8 9 9 8 8 9 11 11 11 10 10 10 11 11 12 9 8 6 6 6 6 6 6 6 6 6 6 6 6 6 5 5 5 6 6 5 4 4 3 3 3 4 4 5 4 4 4 4 4 4 4 3 3 3 3 4 5 7 9 11 14 17 20 20 20 19
7 7 7 7 7 7 7 7 8 8 8 8 8 8 8 8 9 9 8 8 8 8 8 8 8 9 10 11 11 11 11 11 11 11 11 9 7 6 6 6 7 7 7 6 7 7 6 6 6 5 5 5 6 6 5 5 5 4 4 3 3 3 4 4 4 5 4 4 4 4 3 3 3 3 3 3 3 4 6 7 8 11 13 13 15 16
7 7 7 8 8 7 7 8 8 8 8 8 8 9 8 8 8 8 8 8 8 8 8 8 8 8 9 10 10 10 10 8 8 8 7 6 6 5 6 6 7 7 7 7 7 7 7 7 7 7 7 6 6 6 5 5 5 5 5 4 3 3 3 3 4 4 4 4 4 4 3 2 2 2 3 3 3 4 5 5 6 8 9 9 10 10
8 7 7 7 7 7 8 8 8 8 8 8 8 7 7 7 7 7 7 7 7 7 7 8 8 8 8 8 8 8 8 8 8 7 6 6 7 7 6 6 6 7 7 7 7 7 7 7 8 8 7 7 7 7 7 6 7 7 7 6 4 3 3 3 4 4 4 4 4 3 3 2 2 3 3 3 4 5 5 5 5 6 7 8 8 8
8 8 7 7 7 7 7 7 7 8 8 7 7 7 7 7 7 7 8 8 7 7 7 8 8 8 8 7 6 6 6 7 7 7 7 8 8 7 6 6 6 6 7 7 7 7 7 8 8 8 7 7 7 7 6 7 7 7 7 6 5 5 4 4 3 3 4 4 4 4 3 3 3 3 3 4 4 5 5 5 6 6 7 7 7 8
7 7 7 7 7 7 7 8 8 7 7 7 7 7 7 6 7 7 8 8 8 8 8 8 8 8 9 8 7 6 6 6 7 8 7 7 7 7 7 7 7 6 6 7 7 7 8 8 8 7 7 7 7 7 8 8 8 7 6 6 5 4 3 3 2 2 3 4 4 4 3 3 3 3 3 4 4 4 4 5 6 6 7 7 7 7
7 7 7 7 7 7 7 7 7 7 7 7 7 7 6 7 7 8 8 7 7 8 8 7 7 8 8 8 8 8 7 7 7 7 7 7 7 7 7 7 7 7 6 6 6 7 7 8 8 7 7 7 7 7 7 7 7 7 6 6 5 5 4 3 2 3 3 3 3 3 3 3 2 2 3 3 3 3 4 4 5 5 6 6 6 7
6 6 7 7 7 7 7 7 7 7 7 7 7 7 7 7 7 7 7 7 7 8 7 7 7 7 7 7 8 8 7 7 7 7 6 7 8 8 7 6 6 6 6 6 6 6 7 8 8 8 8 7 7 7 6 6 7 7 7 7 6 6 5 4 4 3 4 3 3 3 2 2 2 2 2 2 3 3 3 4 4 5 5 5 6 6
6 7 7 7 7 7 8 8 7 7 7 7 7 7 7 7 6 6 7 7 7 7 7 7 6 6 7 8 8 8 8 8 8 7 7 7 7 7 6 6 6 6 6 6 6 7 7 7 8 9 9 8 7 7 6 6 6 6 7 7 7 6 5 5 4 4 4 4 3 3 2 2 2 2 2 2 3 3 3 4 4 4 5 5 5 6
7 7 7 7 7 7 7 7 7 7 7 7 7 7 7 7 7 7 7 7 7 7 7 7 6 6 7 7 8 8 8 8 8 8 8 8 8 8 8 7 7 7 7 7 7 7 7 7 7 8 8 8 8 7 6 5 5 5 6 6 7 7 6 5 4 4 4 3 3 3 2 1 2 2 3 3 3 3 3 3 3 4 4 5 5 6
8 8 7 7 7 7 8 8 8 8 8 8 8 7 7 7 8 8 7 7 7 7 7 7 7 7 7 7 7 7 8 8 8 8 8 8 8 9 9 9 9 8 8 7 7 7 7 8 8 8 7 7 7 7 7 5 5 4 4 5 6 6 7 6 5 4 3 3 3 2 2 2 3 3 3 3 3 3 3 3 3 3 3 3 4 5
7 7 7 7 7 8 8 8 8 8 8 8 8 8 7 8 9 9 7 7 7 6 6 7 8 8 8 8 8 8 8 8 8 7 7 7 7 8 8 9 9 9 8 8 6 6 6 6 7 7 7 6 6 7 7 6 5 5 4 4 4 5 6 6 5 5 4 4 3 3 2 3 3 4 3 3 3 3 3 3 3 3 3 3 3 4
7 7 7 7 7 8 8 8 8 8 8 9 9 8 8 7 7 7 6 6 6 6 6 7 8 8 8 8 8 8 8 8 8 7 7 6 6 7 8 8 9 9 9 8 7 6 6 5 5 5 6 6 6 6 6 6 6 5 5 4 4 4 4 5 5 5 4 4 4 3 3 3 3 3 3 3 4 4 3 3 3 2 2 2 2 3
8 7 7 7 7 8 8 8 8 8 8 8 9 8 8 8 7 6 6 6 6 7 7 7 7 8 8 9 9 9 9 8 8 8 8 7 6 7 7 7 8 8 9 8 8 7 7 6 6 5 5 5 5 5 4 5 5 6 5 4 4 4 4 4 4 4 4 5 4 4 3 4 4 4 4 4 4 4 4 3 3 3 2 2 2 3
Wind_Direction
330 331 334 344 342 338 336 343 340 333 321 312 302 294 289 284 278 271 266 262 257 252 246 244 242 240 238 234 231 229 229 230 231 231 231 229 229 228 228 228 227 227 227 226 226 225 224 223 223 222 221 221 221 221 220 219 217 216 216 216 216 216 216 215 215 214 213 212 211 211 211 212 213 213 214 213 213 212 212 211 211 210 209 209 208 208
331 329 331 343 343 338 331 341 342 338 332 326 318 307 294 283 276 270 267 264 260 256 253 250 247 244 242 239 233 230 230 231 232 232 232 231 230 229 229 229 229 228 228 227 227 226 225 223 223 222 221 221 221 221 220 219 217 216 215 215 215 215 215 215 215 214 214 213 212 212 213 213 213 214 214 213 213 212 212 211 211 211 210 209 209 209
332 330 332 341 343 340 333 336 336 334 332 330 326 321 310 295 281 270 263 260 257 255 254 253 251 248 245 243 237 233 231 231 231 232 232 232 232 231 231 230 230 230 230 229 228 227 226 224 223 222 221 220 220 220 220 219 217 216 215 215 215 215 215 215 215 214 214 214 213 213 214 214 214 214 214 213 213 212 212 212 212 212 211 211 210 210
332 331 334 337 340 339 333 330 328 329 330 329 328 325 320 310 296 280 267 261 257 254 253 252 252 252 251 248 243 237 233 232 231 231 232 232 232 232 232 232 232 232 231 231 230 229 227 226 224 222 221 220 220 219 219 218 217 216 215 215 214 214 214 214 214 214 214 214 214 214 214 215 215 214 214 214 214 214 214 214 214 214 213 213 212 212
332 332 334 335 334 330 328 325 324 325 327 328 329 328 326 321 314 302 288 276 267 261 257 254 253 253 254 253 248 242 236 233 232 231 231 231 232 232 232 232 232 232 232 232 231 230 229 227 225 223 222 220 220 219 218 217 217 216 215 215 214 214 214 214 214 214 214 214 215 215 215 216 216 217 218 219 220 221 221 220 219 218 216 215 215 215
328 329 330 328 325 322 321 321 323 325 327 331 332 333 333 332 329 325 316 303 290 278 271 267 262 260 259 258 255 249 243 238 235 232 231 231 232 232 232 232 232 232 232 232 231 230 229 228 227 225 223 221 220 219 217 216 216 215 215 214 214 214 213 213 213 213 214 214 215 215 216 217 218 220 223 225 228 229 229 228 225 223 221 219 218 218
322 322 323 319 316 315 316 317 321 326 332 337 338 338 340 341 340 338 335 330 325 319 313 307 297 286 276 271 266 260 253 247 241 237 233 233 233 233 233 233 233 233 232 232 231 230 229 228 227 225 224 222 220 218 217 216 215 214 214 214 213 213 213 212 212 212 212 213 214 215 216 217 218 220 223 225 227 229 229 230 230 228 226 224 223 222
319 320 322 319 317 315 314 315 321 332 346 347 345 343 345 346 343 340 338 340 343 345 344 340 333 324 314 299 287 276 266 258 251 245 238 236 236 235 235 235 235 234 233 232 231 230 229 228 226 225 224 222 220 218 217 215 214 213 213 213 212 212 212 211 211 211 212 212 213 214 215 216 217 218 219 218 218 220 223 227 230 231 230 229 228 227
320 320 322 322 320 318 318 317 327 348 5 359 351 346 345 344 340 336 336 340 346 351 351 347 343 338 333 325 314 298 280 267 258 252 246 243 240 238 238 238 237 236 234 233 232 230 229 227 226 224 223 221 220 218 217 215 214 213 212 212 212 211 211 211 211 211 212 212 213 214 215 216 217 216 215 212 211 212 215 220 225 229 231 231 231 232
320 320 320 320 319 317 317 317 330 359 15 3 353 347 347 343 339 336 333 335 340 346 350 345 341 336 333 330 323 313 298 279 263 253 249 245 242 240 238 239 238 237 235 234 233 231 229 227 225 224 222 220 219 217 216 215 213 212 212 211 210 210 210 210 210 211 212 212 214 215 216 217 217 216 214 210 209 209 210 215 219 224 228 230 233 235
322 321 319 318 316 314 314 317 334 358 8 355 347 345 352 350 344 337 332 331 333 337 341 340 336 332 329 325 322 320 320 310 292 272 258 250 245 241 238 238 237 237 236 235 233 232 230 228 225 223 222 220 218 217 215 214 213 211 210 209 209 209 209 209 210 210 211 212 213 214 216 217 217 216 215 211 209 208 209 212 215 219 223 228 231 234
322 321 320 318 317 318 323 331 344 355 357 350 346 345 349 353 348 339 330 327 329 332 333 331 329 327 324 316 318 328 342 342 339 330 314 296 275 257 248 242 238 237 236 235 234 232 230 228 226 224 222 220 218 217 215 214 212 211 209 208 207 207 207 208 209 209 210 211 212 213 215 216 216 216 215 212 210 209 209 210 213 216 219 223 226 230
319 318 318 317 319 325 337 344 347 349 351 351 347 344 341 344 342 335 324 321 322 325 326 323 322 320 316 309 320 342 355 352 349 344 339 334 328 320 306 283 260 245 238 236 235 233 230 228 226 224 222 221 219 217 215 214 212 210 208 206 205 204 205 206 206 208 209 210 211 212 213 214 215 215 215 213 212 210 209 210 212 213 215 218 220 223
319 319 319 319 323 332 345 346 343 341 343 346 343 338 333 333 333 330 323 318 318 319 319 315 314 314 313 315 335 358 360 351 344 338 333 330 330 329 327 318 306 287 260 245 237 231 227 224 225 224 223 221 219 218 216 214 213 211 209 207 205 204 204 204 205 206 207 208 209 211 212 213 214 215 215 214 213 212 210 211 211 212 213 215 216 218
321 322 322 323 327 333 343 341 336 331 331 333 332 329 327 328 329 329 325 320 319 319 318 313 311 309 305 320 349 4 2 352 343 335 328 321 319 318 317 314 311 305 291 269 253 240 226 219 219 221 221 220 218 217 215 214 213 212 211 209 207 206 206 205 206 207 207 209 210 211 212 213 214 215 215 215 214 213 212 211 212 212 213 213 214 215
320 321 321 322 324 327 333 332 327 322 321 323 325 327 328 328 329 328 325 320 320 322 322 321 319 315 307 320 357 11 6 354 343 333 324 317 313 311 310 308 307 306 301 288 275 260 242 229 222 219 217 216 215 214 213 213 213 213 212 212 211 211 211 211 212 212 213 214 215 215 216 217 217 217 216 216 215 214 213 212 212 212 213 213 214 214
319 320 319 318 318 320 323 322 318 316 317 319 322 324 325 324 323 322 319 318 319 321 321 324 323 319 315 320 347 15 14 355 339 326 317 310 307 306 305 303 303 303 303 298 290 278 262 248 237 228 222 217 215 214 214 214 215 215 215 215 216 216 217 218 219 220 221 221 222 222 221 221 220 218 217 216 215 214 213 213 212 212 213 213 214 214
319 318 316 313 313 315 319 318 317 317 319 320 321 321 318 315 314 313 311 314 316 317 317 318 315 311 312 312 326 356 12 351 332 318 310 304 302 301 300 297 295 296 299 300 298 291 277 260 249 241 236 226 222 220 218 218 219 220 220 220 221 222 223 224 225 226 227 227 227 226 225 223 221 219 216 214 213 213 213 213 213 213 213 213 214 214
315 313 310 308 309 312 316 319 323 325 326 325 324 321 317 314 311 308 305 307 308 309 310 308 305 301 301 302 316 338 357 338 321 308 301 299 298 299 301 299 297 296 300 307 311 311 307 295 273 255 245 236 232 228 226 226 225 226 226 226 226 226 226 226 227 228 228 229 228 227 225 223 220 217 215 213 212 212 212 213 213 214 214 214 214 214
304 302 300 303 307 312 316 323 329 330 328 324 320 316 312 312 310 307 305 303 301 299 300 297 296 297 299 301 311 325 337 323 311 300 294 292 293 296 305 310 311 312 315 315 318 321 323 322 312 293 266 254 244 238 233 231 230 229 230 229 229 229 228 227 227 227 227 227 225 224 222 220 217 215 213 212 212 212 214 215 215 216 216 216 215 214
296 295 296 307 314 318 321 326 328 327 323 319 315 311 308 309 308 307 306 303 300 296 294 289 290 293 298 299 304 310 318 310 304 298 293 291 291 295 313 323 323 318 313 308 306 306 308 308 309 307 300 283 267 254 243 236 232 230 230 230 229 229 228 227 226 225 224 223 222 220 218 216 215 214 213 214 214 215 216 217 218 218 218 217 216 215
299 303 312 320 322 321 320 320 320 319 317 315 313 310 311 312 309 307 305 302 298 295 292 288 287 289 290 290 292 295 299 295 293 294 297 296 297 300 321 326 319 312 305 301 298 296 293 293 292 294 297 295 288 278 263 248 237 232 230 229 229 228 227 226 225 223 222 220 218 216 214 214 213 214 215 216 217 218 219 219 219 219 219 217 216 214
312 318 323 325 322 317 314 312 312 311 312 311 311 310 310 308 305 303 302 299 295 292 290 288 287 285 282 281 282 282 280 278 283 290 297 295 297 301 313 318 310 301 294 294 296 299 301 298 295 293 292 293 294 291 283 265 249 239 233 231 229 228 227 225 223 221 219 217 215 214 213 213 214 215 216 218 219 220 220 220 219 219 217 216 215 213
324 322 319 317 314 311 308 308 309 310 311 310 308 306 302 299 298 297 296 294 293 293 293 293 292 289 283 279 277 276 271 275 283 290 290 286 288 293 305 308 301 294 290 292 297 303 307 303 299 294 289 291 297 302 302 289 269 252 241 235 231 229 226 224 221 219 217 215 214 213 213 214 216 217 218 220 220 221 220 219 218 217 216 214 213 212
321 316 312 311 312 313 313 314 316 318 320 318 314 309 306 308 308 307 305 303 302 302 301 299 298 297 295 290 286 281 271 271 276 279 279 279 283 288 297 299 295 293 293 298 304 309 310 306 303 299 293 295 307 319 326 321 305 279 258 245 238 232 228 225 222 219 217 215 214 214 215 216 218 219 220 220 220 220 219 217 216 214 213 212 211 210
321 318 316 316 316 317 317 319 321 324 327 325 323 322 323 325 325 323 320 319 318 316 312 308 305 304 306 303 301 297 292 275 268 269 275 282 287 291 296 297 298 299 304 308 311 313 311 308 306 305 304 307 317 328 340 343 339 327 303 271 251 241 235 230 227 223 221 219 218 218 218 219 220 221 221 221 220 218 217 215 213 211 210 209 209 209
323 320 318 318 319 320 321 323 325 327 328 328 329 332 336 337 333 328 326 329 328 325 319 316 313 312 312 310 309 307 303 291 282 281 288 291 291 293 304 318 321 318 314 312 310 309 305 303 304 307 311 310 313 324 341 346 349 350 349 331 297 266 249 240 234 231 228 226 224 223 222 222 222 222 222 221 219 217 215 213 211 209 208 207 208 209
323 321 320 320 320 321 323 326 327 328 328 329 332 335 340 340 334 329 328 330 328 324 319 318 317 316 317 316 314 311 304 295 301 317 325 313 305 305 324 337 335 328 321 314 308 303 296 292 293 298 303 305 309 321 337 343 346 348 353 352 347 332 296 264 247 239 233 231 228 226 225 224 223 222 221 219 218 216 214 212 210 209 207 206 207 208
320 318 317 318 319 320 322 323 323 324 325 328 332 336 341 338 331 325 323 324 323 319 316 316 316 315 315 314 312 308 298 294 326 353 351 333 319 316 331 333 333 331 327 318 311 304 293 282 277 280 290 305 316 328 339 342 341 340 342 346 345 340 329 312 282 254 238 230 226 224 221 220 218 217 216 215 214 213 212 211 210 209 208 208 208 208
317 315 313 314 315 316 318 317 316 318 322 326 329 332 334 331 324 319 317 319 318 315 313 313 313 313 314 313 310 305 294 309 356 5 357 339 324 317 326 323 326 331 333 323 317 311 303 291 278 276 294 316 327 336 343 341 337 333 332 337 334 328 318 307 293 275 254 234 223 217 213 212 210 209 209 208 208 208 208 208 207 207 208 209 210 210
319 318 314 313 312 311 312 312 312 314 318 322 325 326 327 324 320 317 316 316 313 311 308 308 309 311 313 312 310 306 300 322 351 358 353 333 317 312 319 316 318 324 331 324 317 313 309 305 302 305 319 326 328 331 334 329 324 321 323 327 323 315 302 290 281 272 261 245 231 221 214 211 208 206 206 205 204 205 205 204 203 202 205 206 208 210
322 322 321 320 318 315 314 316 316 317 318 320 321 322 323 323 322 320 318 315 311 307 304 303 303 305 306 304 301 298 298 311 332 340 339 321 307 303 310 309 310 312 313 303 298 299 303 307 312 318 323 323 322 321 317 309 303 302 307 309 304 294 285 277 271 266 260 249 239 231 223 218 215 212 210 208 207 206 205 204 202 201 202 204 206 208
326 326 326 326 325 325 324 326 326 326 325 326 326 326 325 326 325 324 320 317 312 308 303 300 300 300 300 297 293 291 291 300 317 326 326 314 304 300 304 304 305 305 304 293 283 280 283 295 305 312 314 314 314 314 310 302 293 288 288 288 287 282 276 272 266 260 256 249 242 235 228 223 220 218 216 214 212 210 208 206 205 203 202 203 204 205
329 329 329 331 331 331 333 335 335 334 332 333 333 332 331 329 327 324 321 318 314 310 304 301 300 300 300 298 295 293 291 298 312 318 319 310 302 297 301 301 302 304 304 299 293 287 282 289 297 304 307 308 308 305 300 296 291 288 282 276 277 278 278 272 265 256 250 244 239 233 226 222 221 220 218 217 216 214 212 209 207 206 206 205 203 202
331 332 334 335 336 336 337 339 338 336 335 334 333 332 331 329 326 322 319 317 314 311 307 303 300 299 299 299 299 298 298 303 311 314 311 305 299 296 297 297 299 301 301 298 299 298 293 294 297 300 303 305 305 302 291 286 290 294 289 272 268 270 273 272 267 260 252 244 237 230 221 217 216 216 217 217 216 215 214 212 210 208 208 207 206 204
333 334 336 337 338 338 338 337 336 334 333 332 330 330 328 326 323 319 316 315 314 313 312 308 304 300 297 296 296 296 299 303 306 306 303 300 297 295 293 293 294 296 295 295 295 296 295 296 296 297 297 299 301 303 301 297 299 300 287 266 259 258 262 263 262 261 257 251 243 235 224 216 212 211 213 214 214 215 215 213 211 210 209 209 209 208
335 335 337 338 338 338 336 335 333 332 331 329 327 326 325 321 319 317 315 315 316 316 315 312 308 303 300 296 293 292 293 297 298 297 296 295 293 291 289 290 291 292 290 292 293 293 293 294 294 294 292 292 295 302 310 314 313 300 276 256 250 250 254 256 255 255 256 253 250 246 237 227 220 216 214 212 212 213 214 213 212 211 210 211 211 211
336 335 336 337 338 337 334 332 331 330 328 326 324 322 320 317 315 314 315 317 318 318 316 314 310 305 301 297 292 289 287 288 289 290 291 292 293 292 291 292 292 291 288 289 289 290 291 292 294 294 293 290 292 298 306 310 307 297 279 262 252 250 252 253 252 250 249 250 252 251 248 240 234 229 223 215 212 212 214 214 213 211 210 211 212 213
336 335 335 337 337 336 333 330 328 326 323 321 319 317 315 313 313 314 316 317 317 316 313 311 309 306 304 300 296 293 290 288 287 288 291 293 295 296 297 298 298 297 295 292 290 290 290 290 291 293 295 295 296 298 301 303 302 299 295 286 272 258 249 248 247 246 244 244 246 249 250 246 242 239 237 226 216 212 212 212 210 208 206 208 211 214
334 334 334 335 335 333 329 326 323 320 318 315 315 314 314 314 314 315 317 316 315 313 309 307 307 306 306 305 303 300 298 294 293 293 295 297 299 300 302 302 302 302 302 299 297 295 293 292 291 292 293 295 298 300 302 299 298 297 298 294 286 268 246 243 243 244 242 240 241 243 247 247 245 244 244 237 228 220 215 211 207 203 200 200 202 207
334 333 333 332 330 327 324 321 318 316 315 315 316 317 317 319 319 319 319 318 317 316 315 314 313 311 308 305 303 301 299 296 295 295 295 296 297 299 300 298 297 299 301 300 299 297 295 294 294 295 296 297 299 299 299 299 298 296 292 288 284 278 263 251 247 246 246 244 241 238 239 243 246 246 246 243 238 230 222 216 209 203 198 198 197 197
332 332 330 328 326 324 321 318 316 315 316 317 318 319 320 321 322 321 321 320 320 321 322 323 321 318 314 310 306 303 301 300 298 296 294 292 291 291 290 290 292 295 299 299 297 295 293 292 292 294 297 301 303 305 305 307 305 300 291 286 286 287 282 267 254 245 243 245 242 237 232 236 241 244 245 246 243 238 230 222 214 206 200 200 199 199
329 328 325 322 320 318 316 316 318 319 320 320 319 319 320 321 321 320 319 319 320 321 323 323 321 318 316 316 316 316 313 308 303 300 295 289 284 282 282 283 286 291 296 298 298 296 294 292 291 292 295 299 301 303 305 309 311 308 299 295 296 297 295 288 280 266 252 248 244 239 234 235 238 242 245 248 246 243 235 226 218 211 205 202 201 201
322 321 320 319 317 317 317 319 321 322 321 320 318 318 318 319 319 318 317 317 318 320 322 321 318 316 315 317 319 320 319 317 312 307 300 294 291 288 286 285 286 289 292 295 298 300 300 298 296 295 296 295 294 295 298 303 307 308 307 303 297 292 288 293 300 298 286 274 265 256 249 249 252 255 257 257 255 251 243 231 224 217 210 206 203 202
318 319 319 319 320 320 321 321 321 320 320 319 318 317 317 318 319 318 317 316 317 319 320 320 318 318 318 319 320 321 320 320 320 319 314 311 310 308 301 297 295 295 294 294 296 299 301 301 300 299 298 293 289 288 289 295 300 304 306 303 296 286 276 277 281 286 288 286 282 277 270 273 277 277 273 268 263 259 253 241 230 221 213 208 205 202
319 320 320 320 320 320 320 320 319 319 318 318 317 317 318 318 318 317 317 317 317 317 317 317 318 317 317 318 320 321 321 321 323 324 325 325 326 325 321 313 310 308 305 300 296 293 290 292 294 296 297 295 290 285 282 287 294 301 307 308 304 295 283 275 269 268 272 277 280 281 285 288 280 271 268 268 267 265 261 252 239 227 215 208 205 202
320 319 319 318 318 317 317 318 319 318 318 317 317 317 318 318 318 318 318 319 317 316 315 316 315 314 313 315 317 319 319 320 321 323 326 328 329 330 330 325 321 318 310 302 294 288 281 279 280 282 287 289 288 286 282 283 288 295 304 309 310 308 303 294 282 272 266 269 273 280 292 287 270 260 258 262 265 265 264 261 253 242 227 214 206 202
318 317 315 315 315 315 316 317 318 318 317 316 316 316 318 320 321 322 320 319 317 316 316 317 316 315 313 313 314 315 315 316 318 320 323 326 327 329 330 328 326 322 315 304 294 284 276 270 267 266 269 273 278 283 285 285 285 287 294 301 305 308 308 306 302 295 284 277 273 271 271 265 261 258 256 258 260 261 257 259 263 262 253 230 214 204
314 313 312 312 313 313 314 315 315 315 314 315 315 316 316 318 320 321 318 317 316 316 316 316 316 315 314 313 313 313 314 314 315 317 320 323 324 325 326 326 325 323 320 314 306 293 281 270 262 256 252 255 264 274 282 285 285 285 286 288 293 299 304 307 308 307 302 292 283 273 262 259 259 258 256 254 255 255 252 250 255 264 271 258 235 215
311 309 309 310 310 310 310 311 312 312 311 312 313 314 315 317 318 317 314 313 313 314 314 314 314 314 313 313 313 315 317 316 316 316 318 320 322 323 323 324 324 323 322 322 322 320 314 302 284 267 253 252 257 268 280 286 289 290 289 286 288 292 297 302 305 307 307 300 292 281 269 264 261 257 254 252 251 251 249 245 242 244 254 265 255 236
309 308 308 308 307 306 306 307 307 307 307 309 311 312 313 314 314 314 313 313 313 313 312 311 311 311 310 311 313 314 316 316 316 315 316 318 319 320 319 320 321 323 323 325 327 329 330 328 322 311 289 280 280 283 287 294 299 302 302 304 307 309 308 308 308 307 305 301 295 286 275 267 262 257 251 250 250 249 246 242 236 229 220 231 244 244